[[{"header":{"parameterUnit":"m.s-1","parameterCategory":1,"la1":30.2991,"la2":30.254,"lo1":-89.0895,"lo2":-89.0444,"dy":0.0017,"dx":0.0017,"nx":28,"ny":28,"refTime":"2024-09-27T09:00:00:Z","depth":0,"parameterNumber":2,"parameterNumberName":"U-component_of_WINDS"},"data":[0,0,0,0,0,0,0,0,0,0,0,0,0,0,0,0,0,0,0,0,0,0,0,0,0,0,0,0,0,0,0,0,0,0,0,0,0,0,0,0,0,0,0,0,0,0,0,0,0,0,0,0,0,0,0,0,0,0,5.886,5.8863,0,5.9084,5.9087,5.9089,5.9053,5.9049,5.9045,5.9042,5.9274,5.9283,5.9293,0,0,0,0,0,0,0,0,0,0,0,0,0,5.8403,5.8412,5.886,5.8863,5.8866,5.9084,5.9087,5.909,5.9054,5.9049,5.9044,5.904,5.927,5.9282,5.9294,0,0,0,0,0,0,0,0,0,0,0,0,0,5.8612,5.8414,5.8859,5.8874,5.8877,5.9083,5.9087,5.9091,5.9055,5.9049,5.9043,5.9038,5.9267,5.9281,5.9295,5.9501,0,0,5.934,5.9346,0,0,0,0,0,0,0,0,5.86,5.8629,5.8869,5.8873,5.8877,5.9035,5.901,5.9228,5.9056,5.8988,5.9042,5.9035,5.9199,5.9219,5.9274,5.9512,5.9522,5.9341,5.935,5.9356,5.9361,0,0,0,0,0,0,0,5.8586,5.8619,5.8949,5.8872,5.8878,5.887,5.8893,5.9052,5.9123,5.8993,5.8991,5.9018,5.92,5.926,5.9279,5.9526,5.9341,5.9354,5.9363,5.9369,5.9944,5.995,0,0,0,0,0,0,5.8567,5.8607,5.8941,5.8955,5.8722,5.8883,5.8909,5.899,5.9121,5.9136,5.9023,5.9015,5.9237,5.9262,5.9287,5.9536,5.9356,5.937,5.9379,5.9938,5.9946,5.9953,0,0,0,0,0,0,5.8557,5.8597,5.8932,5.8781,5.8823,5.8897,5.8988,5.8998,5.9057,5.9143,5.9156,5.907,5.9234,5.9266,5.9448,5.9543,5.9377,5.939,5.993,5.994,5.9949,6.0036,0,0,0,0,0,0,5.8544,5.8594,5.8672,5.8783,5.8831,5.909,5.8994,5.9006,5.9082,5.9075,5.9191,5.9205,5.9232,5.9426,5.9463,5.956,5.9401,5.9922,5.9935,5.9946,6.0025,6.0048,6.0067,0,0,0,0,0,5.8528,5.8688,5.8676,5.8717,5.8931,5.9095,5.9123,5.9149,5.909,5.9169,5.9225,5.9201,5.9527,5.9445,5.9486,5.959,5.9916,5.9931,5.9945,6.0016,6.0043,6.0066,0,0,0,0,0,0,5.8588,5.8703,5.8691,5.8892,5.8984,5.9089,5.919,5.9178,5.9289,5.9278,5.9307,5.9334,5.9518,5.9572,5.9479,5.9796,5.9713,5.9737,5.9753,5.978,5.9801,5.9783,5.9414,0,0,0,0,0,5.8624,5.8748,5.8842,5.901,5.9057,5.9116,5.9188,5.9201,5.9298,5.9336,5.9405,5.9501,5.9625,5.9706,5.9825,6.0033,6.0058,6.0125,6.0146,6.0162,6.0182,6.0295,6.0326,6.0001,6.0001,6.0,0,0,5.8701,5.8779,5.8856,5.9024,5.9097,5.9224,5.9149,5.9287,5.9381,5.9358,5.9533,5.9587,5.9696,5.9891,5.9981,5.9942,6.0277,6.0181,6.0194,6.0204,6.0314,6.0344,6.0372,6.0011,6.0009,6.0007,0,0,5.8906,5.8978,5.9125,5.92,5.931,5.9348,5.9384,5.9491,5.9526,5.9702,5.9687,5.98,6.0013,6.0091,6.0158,6.0393,6.0375,6.0431,6.054,6.065,6.0676,6.0699,6.0781,6.081,6.045,6.0451,6.0451,0,5.8987,5.9178,5.9203,5.9343,5.9417,5.9401,5.9551,5.9622,5.9766,5.9818,5.9773,6.0039,6.0111,6.0324,6.0381,6.0437,6.0478,6.0417,6.067,6.0693,6.0715,6.0794,6.0825,6.0457,6.0456,6.0455,6.0455,0,5.9272,5.9404,5.951,5.9649,5.9736,5.988,5.9927,6.0012,6.0018,6.0061,6.024,6.0326,6.0462,6.0514,6.0521,6.0729,6.0701,6.0663,6.058,6.0751,6.0826,6.0856,6.0465,6.0463,6.0461,6.046,0,0,5.9519,5.967,5.9708,5.9771,5.9892,5.9995,6.0139,6.0271,6.0342,6.0443,6.0564,6.0744,6.071,6.0786,6.0802,6.0899,6.1078,6.0849,6.0852,6.0887,6.1311,6.1337,6.1372,6.1068,6.1074,6.1078,6.1301,0,5.9734,5.9986,6.0014,6.0239,6.0361,6.0348,6.0473,6.0562,6.0606,6.0717,6.0766,6.0893,6.0838,6.0884,6.098,6.1036,6.1163,6.1021,6.118,6.1185,6.1151,6.1411,6.144,6.1646,6.1331,6.1336,6.1339,0,6.0018,6.0126,6.0363,6.0467,6.0519,6.0631,6.0753,6.086,6.096,6.0985,6.1071,6.1074,6.1222,6.1135,6.134,6.1243,6.131,6.1347,6.1356,6.1371,6.1271,6.1431,6.1713,6.1743,6.1386,6.1382,6.1379,0,6.0173,6.0377,6.0545,6.06,6.0725,6.0804,6.086,6.0954,6.1032,6.114,6.119,6.1314,6.1382,6.1478,6.1515,6.1448,6.1718,6.1634,6.1743,6.1742,6.1799,6.1794,6.2093,6.1845,6.1845,6.1844,6.1843,0,6.0409,6.0554,6.0616,6.072,6.0882,6.0913,6.1073,6.1126,6.121,6.1323,6.1321,6.1428,6.147,6.1585,6.1615,6.1779,6.181,6.1835,6.1841,6.1834,6.1831,6.1877,6.1863,6.1852,6.1851,6.1849,6.1847,0,6.0608,6.0656,6.0838,6.0942,6.0972,6.1087,6.1176,6.1276,6.1319,6.1463,6.1499,6.1567,6.1701,6.1747,6.1911,6.1931,6.2121,6.2116,6.2087,6.2088,6.2193,6.2182,6.2531,6.2578,6.23,6.2303,6.2305,0,6.0755,6.0866,6.0982,6.1057,6.1116,6.1238,6.1317,6.1351,6.1433,6.1556,6.1641,6.1774,6.1882,6.2097,6.2161,6.2286,6.2282,6.2396,6.2301,6.2291,6.2282,6.2274,6.2285,6.2413,6.2416,6.2419,6.242,0,6.1009,6.1027,6.114,6.1262,6.1356,6.1454,6.1548,6.161,6.1659,6.1752,6.1888,6.1972,6.2138,6.2269,6.2397,6.2455,6.2447,6.245,6.2482,6.2475,6.2453,6.2464,6.2133,6.2442,6.2439,6.2438,6.2437,6.2436,6.1186,6.1284,6.138,6.1506,6.1581,6.167,6.1768,6.1823,6.1937,6.2074,6.2089,6.2235,6.2333,6.2503,6.2567,6.2683,6.2651,6.2697,6.2709,6.2719,6.2726,6.2436,6.2707,6.2706,6.2706,6.2705,6.2705,0,6.1439,6.15,6.1616,6.1748,6.1847,6.183,6.1934,6.2018,6.2146,6.2238,6.2344,6.25,6.2628,6.2703,6.2831,6.2909,6.2908,6.2942,6.2935,6.2949,6.2748,6.2707,6.294,6.294,6.294,6.294,6.294,6.294,6.1582,6.1746,6.1776,6.1977,6.2038,6.2181,6.2241,6.2323,6.2396,6.257,6.2676,6.2724,6.2809,6.2943,6.306,6.3078,6.3125,6.3161,6.3177,6.2987,6.2963,6.294,6.2901,6.3171,6.3172,6.3368,6.3369,6.3371]},{"header":{"parameterUnit":"m.s-1","parameterCategory":1,"la1":30.2991,"la2":30.254,"lo1":-89.0895,"lo2":-89.0444,"dy":0.0017,"dx":0.0017,"nx":28,"ny":28,"refTime":"2024-09-27T09:00:00:Z","depth":0,"parameterNumber":3,"parameterNumberName":"V-component_of_WINDS"},"data":[0,0,0,0,0,0,0,0,0,0,0,0,0,0,0,0,0,0,0,0,0,0,0,0,0,0,0,0,0,0,0,0,0,0,0,0,0,0,0,0,0,0,0,0,0,0,0,0,0,0,0,0,0,0,0,0,0,0,3.3391,3.3392,0,3.3457,3.3458,3.3459,3.3438,3.3437,3.3435,3.3434,3.3499,3.3502,3.3505,0,0,0,0,0,0,0,0,0,0,0,0,0,3.3244,3.3247,3.3391,3.3392,3.3393,3.3457,3.3458,3.3459,3.3438,3.3437,3.3435,3.3433,3.3498,3.3502,3.3505,0,0,0,0,0,0,0,0,0,0,0,0,0,3.3309,3.3248,3.3391,3.339,3.3391,3.3457,3.3458,3.3459,3.3439,3.3437,3.3435,3.3433,3.3497,3.3501,3.3506,3.3576,0,0,3.352,3.3522,0,0,0,0,0,0,0,0,3.3305,3.3314,3.339,3.3391,3.3391,3.3438,3.343,3.3498,3.3439,3.3421,3.3434,3.3432,3.348,3.3486,3.3503,3.3579,3.3582,3.352,3.3523,3.3525,3.3526,0,0,0,0,0,0,0,3.3301,3.3311,3.3417,3.3391,3.3392,3.3386,3.3393,3.3443,3.3461,3.3422,3.3421,3.3429,3.348,3.3499,3.3504,3.3583,3.352,3.3524,3.3527,3.3529,3.3719,3.3722,0,0,0,0,0,0,3.3296,3.3308,3.3415,3.3419,3.3342,3.339,3.3398,3.3425,3.3461,3.3464,3.3431,3.3428,3.3492,3.3499,3.3506,3.3591,3.3525,3.3529,3.3532,3.3717,3.372,3.3722,0,0,0,0,0,0,3.3293,3.3306,3.3413,3.3363,3.3376,3.3395,3.3425,3.3427,3.3446,3.3467,3.347,3.3446,3.349,3.35,3.3559,3.3593,3.3531,3.3535,3.3714,3.3718,3.3721,3.376,0,0,0,0,0,0,3.3289,3.3305,3.3333,3.3364,3.3379,3.3465,3.3427,3.343,3.3454,3.3451,3.3483,3.3486,3.349,3.3552,3.3564,3.3598,3.3539,3.3711,3.3716,3.372,3.3756,3.3765,3.3772,0,0,0,0,0,3.3284,3.334,3.3334,3.3347,3.3414,3.3467,3.3475,3.3479,3.3457,3.3484,3.3498,3.3485,3.3587,3.3559,3.3571,3.3607,3.3709,3.3715,3.372,3.3752,3.3763,3.3772,0,0,0,0,0,0,3.3311,3.3344,3.3338,3.3406,3.3434,3.3463,3.3498,3.349,3.3524,3.352,3.3522,3.353,3.359,3.3604,3.3572,3.3677,3.3645,3.3653,3.3665,3.3676,3.3683,3.3679,3.3543,0,0,0,0,0,3.3325,3.3366,3.3393,3.345,3.3465,3.3479,3.3502,3.3503,3.3531,3.3543,3.3561,3.3588,3.3627,3.3652,3.3688,3.3758,3.3764,3.3789,3.3797,3.3804,3.381,3.3848,3.3859,3.374,3.374,3.374,0,0,3.3354,3.3378,3.3403,3.3457,3.3478,3.352,3.3489,3.3534,3.3565,3.3549,3.3606,3.3621,3.3651,3.3716,3.3745,3.373,3.3845,3.381,3.3815,3.3819,3.3855,3.3866,3.3876,3.3743,3.3743,3.3742,0,0,3.3429,3.3451,3.3502,3.3524,3.3558,3.3567,3.3579,3.361,3.3619,3.3676,3.3665,3.3702,3.3768,3.379,3.381,3.3894,3.3883,3.3905,3.3947,3.3984,3.3994,3.4002,3.4032,3.4042,3.3912,3.3912,3.3912,0,3.3461,3.3524,3.3528,3.3575,3.3599,3.3587,3.3638,3.3659,3.3703,3.3719,3.3701,3.3784,3.3804,3.3874,3.3894,3.3911,3.3924,3.3902,3.3992,3.4,3.4008,3.4037,3.4048,3.3915,3.3914,3.3914,3.3914,0,3.3562,3.3606,3.3642,3.3686,3.3713,3.3762,3.3773,3.38,3.3798,3.3809,3.3868,3.3891,3.3932,3.3949,3.3947,3.4019,3.4008,3.3991,3.3959,3.4022,3.4049,3.406,3.3918,3.3917,3.3917,3.3916,0,0,3.3655,3.37,3.3714,3.3733,3.377,3.3803,3.3851,3.3892,3.3916,3.3946,3.3986,3.4042,3.4027,3.405,3.4051,3.4083,3.4148,3.4062,3.4063,3.4077,3.4228,3.424,3.4253,3.4141,3.4143,3.4145,3.4225,0,3.3732,3.3818,3.3823,3.39,3.394,3.393,3.3972,3.3998,3.401,3.4045,3.4057,3.4097,3.4074,3.4088,3.4119,3.4133,3.4178,3.4127,3.4177,3.4179,3.417,3.4267,3.428,3.4354,3.4236,3.4237,3.4239,0,3.3834,3.3869,3.395,3.3981,3.3998,3.4036,3.4074,3.4108,3.4138,3.4144,3.417,3.4166,3.4214,3.4181,3.4247,3.4212,3.4233,3.4243,3.4246,3.4251,3.4213,3.4274,3.4378,3.439,3.4255,3.4254,3.4253,0,3.3894,3.3961,3.4018,3.4035,3.4073,3.41,3.4116,3.4144,3.4168,3.4201,3.4217,3.4255,3.4276,3.4305,3.4311,3.4286,3.4378,3.4344,3.4383,3.4383,3.4403,3.4402,3.4512,3.4417,3.4416,3.4416,3.4416,0,3.398,3.403,3.4046,3.4081,3.4137,3.4142,3.4197,3.4211,3.4236,3.4273,3.4266,3.4301,3.4308,3.4344,3.4349,3.4403,3.4413,3.4418,3.4419,3.4419,3.4418,3.4432,3.4427,3.4419,3.4419,3.4418,3.4417,0,3.4056,3.4069,3.4131,3.4162,3.4171,3.421,3.4236,3.4269,3.428,3.4328,3.4339,3.4356,3.4398,3.4407,3.4457,3.4461,3.4525,3.452,3.4515,3.4515,3.4553,3.4549,3.4677,3.4694,3.4587,3.4588,3.4589,0,3.411,3.4149,3.4184,3.4209,3.4228,3.4268,3.4293,3.43,3.4326,3.4363,3.4392,3.4434,3.4467,3.4535,3.4551,3.4589,3.4586,3.4628,3.4591,3.459,3.4586,3.4584,3.4588,3.4635,3.4636,3.4637,3.4638,0,3.4205,3.421,3.4247,3.4287,3.4318,3.4349,3.4379,3.4399,3.441,3.444,3.4483,3.451,3.4561,3.4603,3.4641,3.4657,3.4649,3.4649,3.466,3.466,3.4656,3.4658,3.4534,3.4646,3.4645,3.4644,3.4644,3.4644,3.4272,3.4306,3.4336,3.4378,3.4401,3.4429,3.4463,3.4478,3.4515,3.4558,3.4559,3.4607,3.4635,3.4686,3.4705,3.4741,3.4728,3.4744,3.4748,3.4752,3.4756,3.465,3.4748,3.4748,3.4748,3.4748,3.4748,0,3.4366,3.4385,3.4424,3.4466,3.4499,3.449,3.4523,3.455,3.4593,3.462,3.4654,3.4704,3.4744,3.4764,3.4804,3.4829,3.4827,3.4839,3.4837,3.4841,3.4765,3.4752,3.4841,3.4841,3.4841,3.4841,3.4841,3.4841,3.4419,3.4476,3.4484,3.4552,3.457,3.4618,3.4637,3.4663,3.4685,3.4742,3.4776,3.4789,3.4813,3.4854,3.4891,3.4895,3.491,3.4925,3.4928,3.4856,3.4847,3.4837,3.4825,3.4928,3.4928,3.5,3.5001,3.5002]}]]